Погода Грозный

Погода Грозный : погода сейчас, прогноз погоды и архив. Всё, что Вы хотите узнать о погоде Грозный!

Поиск расширенной информации на нашем сайте:

Другие новости

Новости СМИ2

Главная страница сайта

Новости сайта

03.07.2017

Напоминаем, что на нашем специализированном сайте Метеоцентр.Азия вы можете получить высокодетализированные автоматические прогнозы погоды по пунктам России, СНГ и мира в авиационном формате (включающие направление и скорость ветра, видимость, явления погоды, количество и форму облачности, нижнюю и верхнюю границу облачности).

Рекомендуем: Наружные отопительные котлы - газовые котлы будерус.

Погода Грозный - сегодня

Время (UTC), дата Ветер
(°,м/с) 
Видим.   Явления Облачность Т
(°С)
Тd
(°С)
f(%) Тe
(°С)
Pmin
(гПа)
dP
(гПа)
Po
(мм)
O2
(г/м3)
Тmin Tmax R s Состояние
почвы
15 17.10.17 270 (З) 10 км    10/10 600 м 
[Sc]
+12.5 +2.1 49 +14  1018.9  0.1  741  285    +15.5       
18 17.10.17 190 (Ю) 10 км    9/9 600 м 
[Sc]
+11.8 +4.2 60 +12  1020.3  1.2  742  286           
21 17.10.17 190 (Ю) 10 км    10/10 600 м 
[Sc]
+11.7 +4.9 63 +12  1020.3  742  286           
00 18.10.17 280 (З) 10 км    10/10 600 м 
[Sc]
+11.9 +5.8 66 +13  1021.6  1.3  743  286           
03 18.10.17 280 (З) 10 км    10/10 600 м 
[Sc]
+13.1 +8.2 72 +13  1023.3  2.1  744  285  +10.6        влажная 
06 18.10.17 тихо ()   20000 м  {дождь}  10/10 1000 м 
[Sc]
+11.4 +10.3 93 +13  1025.3  1.9  746  287           
09 18.10.17 260 (З) 20000 м    10/10 1000 м 
[Sc]
+13.2 +9.4 78 +15  1024.8  -0.4  745  285           
12 18.10.17 190 (Ю) 20000 м    10/10 1000 м 
[Sc]
+14.6 +9.9 73 +17  1024.1  -0.5  745  283           
15 18.10.17 090 (В) 10 км    10/10 600 м 
[Sc]
+10.1 +8.9 92 +11  1024.7  0.1  745  288    +15  0.3     
18 18.10.17 080 (В) 10 км    ясно 
+8.7 +8.1 96 +10  1024.9  745  290           
21 18.10.17 080 (В) 10 км    10/0 средняя 
[As trans]
+7.7 +7.1 96 +9  1024.3  -0.8  745  291           
00 19.10.17 100 (В) 10 км    ясно 
+6.1 +5.7 97 +7  1024.1  -0.3  744  292           
03 19.10.17 тихо ()   10 км    ясно 
+5.8 +5.4 97 +6  1024.1  744  293  +5.6        влажная 
06 19.10.17 230 (ЮЗ) 20000 м    ясно 
+9.9 +9.1 95 +11  1023.8  0.3  745  288  +5.4         
09 19.10.17 020 (С) 20000 м    ясно 
+16.8 +9 60 +18  1021  -2.1  743  280           
12 19.10.17 050 (СВ) 20000 м    5/0 средняя 
[Ac lent]
+17.5 +9.5 59 +19  1020.1  -0.9  742  279           
15 19.10.17 100 (В) 10 км    ясно 
+11.1 +8.8 86 +12  1020.7  742  286    +17.9  0.3     
18 19.10.17 070 (В) 10 км    ясно 
+9.2 +8.2 93 +10  1020.5  -0.3  742  288           
21 19.10.17 100 (В) 10 км    ясно 
+8 +7.4 96 +9  1020  -0.7  742  289           
00 20.10.17 тихо ()   10 км    ясно 
+8.2 +7.4 95 +8  1020.3  742  289           
03 20.10.17 090 (В) 10 км    ясно 
+6.1 +5.6 97 +7  1020.3  742  291  +6.1        сухая 
06 20.10.17 тихо ()   20000 м    ясно 
+11.9 +8.5 80 +12  1019.7  0.2  742  285  +6         
09 20.10.17 310 (СЗ) 20000 м    8/0 верхняя 
[Cs]
+19 +7 46 +21  1017.7  -1.2  741  278           
12 20.10.17 360 (С) 20000 м    8/0 верхняя 
[Cs]
+20 +8.1 46 +20  1017  -0.7  740  277           
15 20.10.17 100 (В) 10 км    ясно 
+11.9 +9.3 84 +14  1018.4  0.6  741  284    +20.4       
Время (UTC), дата Ветер
(°,м/с) 
Видим.   Явления Облачность Т
(°С)
Тd
(°С)
f(%) Тe
(°С)
Pmin
(гПа)
dP
(гПа)
Po
(мм)
O2
(г/м3)
Тmin Tmax R s Состояние
почвы

Для получения пояснительной информации подведите курсор к названию столбца.

ПОГОДА Грозный - архив

Всё, что Вы хотите узнать о погоде Грозный - удобно и подробно!

Выберите нужную дату (начиная с 1 января 2015* года) и нажмите кнопку "Найти".
Будут отображены архивные сводки погоды по пункту Грозный, начиная с указанной даты.


Отображать данные в формате CSV (для использования в таблицах Excel)


Внимание! Наш архив погоды предназначен исключительно для личного некоммерческого использования в познавательных целях. Если Вам необходимы официальные справки о состоянии погоды (для производственных, юридических, коммерческих и т.п. целей), обращайтесь в органы Росгидромета.

*Примечание: данная дата относится к архиву по метеостанциям СССР (Россия, СНГ, Балтия).
Архив по метеостанциям Зарубежной Европы и Азии (кроме Китая) хранится 10 дней, по другим регионам земного шара (Китай, Африка, Америка, Австралия, Океания) - 1 день.

Грозный - район местоположения метеостанции


Название, широта, долгота, высота метеостанции:
Грозный 43.3°ш. 45.7°д. 163 м над ур. моря [Российская Федерация]

Дополнительная информация

В oтличие oт бoльшинства пoгoдных сайтoв мы публикуем пoдрoбную метеoинфoрмацию в детальнoм прoфессиoнальнoм фoрмате.

Характеристики температуры и влажнoсти вoздуха измеряются на высoте 2 м в тени вдали oт зданий и деревьев.
Скoрoсть ветра измеряется на высoте 10 м (на урoвне рoста челoвека скoрoсть ветра ниже в 1.5-2 раза). Если метеoстанция нахoдится в гoрoде или в лесу, тo скoрoсть ветра занижена на 2-4 м/с пo сравнению с oткрытым местoм. Скoрoсть ветра над акватoриями крупных рек и oзёр, а также на вершинах хoлмoв на 2-5 м/с выше, чем в oбычных услoвиях.
Атмoсфернoе давление в разных тoчках местнoсти мoжет значительнo oтличаться oт давления на метеoстанции, в зависимoсти oт услoвий рельефа (при пoдъёме на 10 м давление пoнижается примернo на 1 мм рт.ст.).